Create Custom Reports and Graphics: Custom Report

Sesame - 9,014ft

Current Conditions

3/5/24 6:00 AM (-08:00)
Updated Every 15 Minutes
Temp 20.3 °F   6.0
Daily Min Temp 19.9 °F   5.8
Daily Max Temp 21.7 °F   5.8
RH 86 %   4
Dew Pt 16.7 °F   4.9
Wet Bulb 19.3 °F   5.5
Barometric Press 30.17 inHg   0.02
Wind Dir SW | 219 °
Wind Spd 3.0 mph   2.9
Wind Gust 12.1 mph   13.4
Daily Max Wind 22.2 mph   15.9
Yest MinT 13.8 °F
Yest MaxT 24.8 °F
Yest MaxGst 39.6 mph

Sesame Snow Study Site

Precip/Snow Report

3/5/24 6:00 AM (-08:00)
Updated Every 15 Minutes
New Snow 0.0 in
M WE6AM 0.00 In
P WE6AM 0.00 In
Month Precip M 4.84 In
Month Precip P 4.54 In
SnowDepth 106.8 in
Season Precip M 31.54 In
Season Precip P 29.77 In
BucketRT 20.13 In

Last 24 Hours

Sesame - 9,014ft

15 Minute Data | America/Los_Angeles
as of 3/5/24 6:13 AM PST
Date & Time New Snow (in) M WE6AM (In) P WE6AM (In) Storm Snow (In) Month Precip M (In) Month Precip P (In) SnowDepth (in) Season Precip M (In) Season Precip P (In) Pillow SWE (In)
3/5/24 - 0600 0.0 0.00 0.00 1 4.84 4.54 106.8 31.54 29.77 -
3/5/24 - 0545 0.0 0.00 0.00 1 4.84 4.54 106.8 31.54 29.77 -
3/5/24 - 0530 0.0 0.00 0.00 1 4.84 4.54 106.9 31.54 29.77 0.00
3/5/24 - 0515 0.0 0.00 0.00 1 4.84 4.54 107.0 31.54 29.77 0.00
3/5/24 - 0500 0.0 0.00 0.00 1 4.84 4.54 106.9 31.54 29.77 -
3/5/24 - 0445 0.0 0.00 0.00 1 4.84 4.54 106.9 31.54 29.77 -
3/5/24 - 0430 0.0 0.00 0.00 0 4.84 4.54 106.9 31.54 29.77 -
3/5/24 - 0415 0.0 0.00 0.00 1 4.84 4.54 107.0 31.54 29.77 -
3/5/24 - 0400 0.0 0.00 0.00 1 4.84 4.54 107.0 31.54 29.77 -
3/5/24 - 0345 0.0 0.00 0.00 1 4.84 4.54 107.0 31.54 29.77 -
3/5/24 - 0330 0.0 0.00 0.00 1 4.84 4.54 107.0 31.54 29.77 -
3/5/24 - 0315 0.0 0.00 0.00 1 4.84 4.54 107.1 31.54 29.77 -
3/5/24 - 0300 0.0 0.00 0.00 1 4.84 4.54 107.1 31.54 29.77 -
3/5/24 - 0245 0.0 0.00 0.00 1 4.84 4.54 107.1 31.54 29.77 -
3/5/24 - 0230 0.0 0.00 0.00 1 4.84 4.54 107.2 31.54 29.77 -
3/5/24 - 0215 0.0 0.00 0.00 1 4.84 4.54 107.1 31.54 29.77 -
3/5/24 - 0200 0.0 0.00 0.00 1 4.84 4.54 107.2 31.54 29.77 0.00
3/5/24 - 0145 0.0 0.00 0.00 1 4.84 4.54 107.2 31.54 29.77 -
3/5/24 - 0130 0.0 0.00 0.00 1 4.84 4.54 107.2 31.54 29.77 -
3/5/24 - 0115 0.0 0.00 0.00 1 4.84 4.54 107.3 31.54 29.77 -
3/5/24 - 0100 0.0 0.00 0.00 1 4.84 4.54 107.3 31.54 29.77 0.00
3/5/24 - 0045 0.0 0.00 0.00 1 4.84 4.54 107.4 31.54 29.77 -
3/5/24 - 0030 0.0 0.00 0.00 1 4.84 4.54 107.4 31.54 29.77 -
3/5/24 - 0015 0.0 0.00 0.00 1 4.84 4.54 107.5 31.54 29.77 -
3/5/24 - 0000 0.0 0.00 0.00 0 4.84 4.54 107.4 31.54 29.77 -
3/4/24 - 2345 0.0 0.00 0.00 1 4.84 4.54 107.5 31.54 29.77 -
3/4/24 - 2330 0.0 0.00 0.00 1 4.84 4.54 107.4 31.54 29.77 -
3/4/24 - 2315 0.0 0.00 0.00 1 4.84 4.54 107.5 31.54 29.77 -
3/4/24 - 2300 0.0 0.00 0.00 1 4.84 4.54 107.4 31.54 29.77 -
3/4/24 - 2245 0.0 0.00 0.00 1 4.84 4.54 107.5 31.54 29.77 -
3/4/24 - 2230 0.0 0.00 0.00 1 4.84 4.54 107.5 31.54 29.77 0.00
3/4/24 - 2215 0.0 0.00 0.00 1 4.84 4.54 107.3 31.54 29.77 -
3/4/24 - 2200 0.0 0.00 0.00 1 4.84 4.54 107.6 31.54 29.77 -
3/4/24 - 2145 0.0 0.00 0.00 1 4.84 4.54 107.5 31.54 29.77 -
3/4/24 - 2130 0.0 0.00 0.00 1 4.84 4.54 107.6 31.54 29.77 -
3/4/24 - 2115 0.0 0.00 0.00 1 4.84 4.54 107.4 31.54 29.77 -
3/4/24 - 2100 0.0 0.00 0.00 1 4.84 4.54 107.5 31.54 29.77 -
3/4/24 - 2045 0.0 0.00 0.00 1 4.84 4.54 107.5 31.54 29.77 -
3/4/24 - 2030 0.0 0.00 0.00 1 4.84 4.54 107.5 31.54 29.77 -
3/4/24 - 2015 0.0 0.00 0.00 1 4.84 4.54 107.5 31.54 29.77 -
3/4/24 - 2000 0.0 0.00 0.00 1 4.84 4.54 107.7 31.54 29.77 -
3/4/24 - 1945 0.0 0.00 0.00 1 4.84 4.54 107.4 31.54 29.77 -
3/4/24 - 1930 0.0 0.00 0.00 1 4.84 4.54 107.6 31.54 29.77 0.00
3/4/24 - 1915 0.0 0.00 0.00 1 4.84 4.54 107.3 31.54 29.77 -
3/4/24 - 1900 0.0 0.00 0.00 1 4.84 4.54 107.6 31.54 29.77 -
3/4/24 - 1845 0.0 0.00 0.00 1 4.84 4.54 107.5 31.54 29.77 -
3/4/24 - 1830 0.0 0.00 0.00 0 4.84 4.54 107.4 31.54 29.77 -
3/4/24 - 1815 0.0 0.00 0.00 0 4.84 4.54 107.4 31.54 29.77 -
3/4/24 - 1800 0.0 0.00 0.00 0 4.84 4.54 107.3 31.54 29.77 0.00
3/4/24 - 1745 0.0 0.00 0.00 0 4.84 4.54 107.5 31.54 29.77 -
3/4/24 - 1730 0.0 0.00 0.00 0 4.84 4.54 107.5 31.54 29.77 -
3/4/24 - 1715 0.0 0.00 0.00 0 4.84 4.54 107.6 31.54 29.77 -
3/4/24 - 1700 0.0 0.00 0.00 0 4.84 4.54 108.0 31.54 29.77 -
3/4/24 - 1645 0.0 0.00 0.00 25 4.84 4.54 108.0 31.54 29.77 0.00
3/4/24 - 1630 0.0 0.00 0.00 26 4.84 4.54 107.7 31.54 29.77 0.00
3/4/24 - 1615 0.0 0.00 0.00 26 4.84 4.54 107.8 31.54 29.77 -
3/4/24 - 1600 0.0 0.00 0.00 26 4.84 4.54 107.7 31.54 29.77 -
3/4/24 - 1545 0.0 0.00 0.00 26 4.84 4.54 108.2 31.54 29.77 -
3/4/24 - 1530 0.0 0.00 0.00 26 4.84 4.54 108.1 31.54 29.77 -
3/4/24 - 1515 0.0 0.00 0.00 26 4.84 4.54 108.1 31.54 29.77 0.00
3/4/24 - 1500 0.0 0.00 0.00 26 4.84 4.54 108.1 31.54 29.77 -
3/4/24 - 1445 0.0 0.00 0.00 26 4.84 4.54 108.1 31.54 29.77 -
3/4/24 - 1430 0.0 0.00 0.00 26 4.84 4.54 108.1 31.54 29.77 -
3/4/24 - 1415 0.0 0.00 0.00 26 4.84 4.54 108.1 31.54 29.77 -
3/4/24 - 1400 0.0 0.00 0.00 26 4.84 4.54 108.2 31.54 29.77 0.00
3/4/24 - 1345 0.0 0.00 0.00 26 4.84 4.54 108.2 31.54 29.77 -
3/4/24 - 1330 0.0 0.00 0.00 27 4.84 4.54 108.2 31.54 29.77 0.00
3/4/24 - 1315 0.0 0.00 0.00 26 4.84 4.54 108.2 31.54 29.77 0.00
3/4/24 - 1300 0.0 0.00 0.00 27 4.84 4.54 108.0 31.54 29.77 0.00
3/4/24 - 1245 0.0 0.00 0.00 27 4.84 4.54 106.9 31.54 29.77 -
3/4/24 - 1230 0.0 0.00 0.00 27 4.84 4.54 107.6 31.54 29.77 0.00
3/4/24 - 1215 0.0 0.00 0.00 27 4.84 4.54 107.0 31.54 29.77 -
3/4/24 - 1200 0.0 0.00 0.00 29 4.84 4.54 106.8 31.54 29.77 -
3/4/24 - 1145 0.0 0.00 0.00 27 4.84 4.54 107.2 31.54 29.77 0.00
3/4/24 - 1130 0.0 0.00 0.00 27 4.84 4.54 107.5 31.54 29.77 0.00
3/4/24 - 1115 0.0 0.00 0.00 27 4.84 4.54 107.5 31.54 29.77 -
3/4/24 - 1100 0.0 0.00 0.00 30 4.84 4.54 108.0 31.54 29.77 -
3/4/24 - 1045 0.0 0.00 0.00 27 4.84 4.54 136.7 31.54 29.77 0.00
3/4/24 - 1030 0.0 0.00 0.00 27 4.84 4.54 108.2 31.54 29.77 0.00
3/4/24 - 1015 0.0 0.00 0.00 27 4.84 4.54 108.9 31.54 29.77 -
3/4/24 - 1000 0.0 0.00 0.00 27 4.84 4.54 108.4 31.54 29.77 -
3/4/24 - 0945 0.0 0.00 0.00 27 4.84 4.54 108.6 31.54 29.77 0.00
3/4/24 - 0930 0.0 0.00 0.00 27 4.84 4.54 108.2 31.54 29.77 0.00
3/4/24 - 0915 0.0 0.00 0.00 27 4.84 4.54 109.1 31.54 29.77 -
3/4/24 - 0900 0.0 0.00 0.00 27 4.84 4.54 109.5 31.54 29.77 0.00
3/4/24 - 0845 0.0 0.00 0.00 27 4.84 4.54 109.1 31.54 29.77 -
3/4/24 - 0830 0.0 0.00 0.00 27 4.84 4.54 109.4 31.54 29.77 -
3/4/24 - 0815 0.0 0.00 0.00 27 4.84 4.54 109.6 31.54 29.77 -
3/4/24 - 0800 0.0 0.00 0.00 27 4.84 4.54 109.8 31.54 29.77 -
3/4/24 - 0745 0.0 0.00 0.00 27 4.84 4.54 109.7 31.54 29.77 -
3/4/24 - 0730 0.0 0.00 0.00 27 4.84 4.54 108.5 31.54 29.77 -
3/4/24 - 0715 0.0 0.00 0.00 27 4.84 4.54 109.4 31.54 29.77 0.00
3/4/24 - 0700 0.0 0.00 0.00 27 4.84 4.54 110.2 31.54 29.77 -
3/4/24 - 0645 0.0 0.00 0.00 27 4.84 4.54 109.6 31.54 29.77 -
3/4/24 - 0630 0.0 0.00 0.00 27 4.84 4.54 109.7 31.54 29.77 -
3/4/24 - 0615 0.0 0.00 0.00 27 4.84 4.54 109.2 31.54 29.77 0.00
3/4/24 - 0600 0.0 0.16 0.13 27 4.84 4.54 110.6 31.54 29.77 -
Max 0.0 0.16 0.13 30 4.84 4.54 136.7 31.54 29.77 0.00
Min 0.0 0.00 0.00 0 4.84 4.54 106.8 31.54 29.77 0.00